Weather History for Cheboygan, MI

Change the Weather History Date:

Tuesday, January 21, 2014

  Actual Average (KPLN) Record (KPLN)
Temperature  
Mean Temperature -8 °F -  
Max Temperature 1 °F 27 °F 44 °F (1957)
Min Temperature -16 °F 4 °F -31 °F (1970)
Degree Days  
Heating Degree Days 72    
Moisture  
Dew Point -10 °F    
Average Humidity 77    
Maximum Humidity 85    
Minimum Humidity 70    
Precipitation  
Precipitation 0.00 in - - ()
Sea Level Pressure  
Sea Level Pressure 30.20 in    
Wind  
Wind Speed 3 mph (NNW)    
Max Wind Speed 7 mph    
Max Gust Speed -    
Visibility 10 miles    
Events      
Averages and records for this station are not official NWS values.
T = Trace of Precipitation, MM = Missing Value Source: NWS Daily Summary

Daily Weather History Graph

Daily Weather History Graph

Search for Another Location

Airport:

Trip Planner

Search our weather history database for the weather conditions in past years. The results will help you decide how hot, cold, wet, or windy it might be!

Date:

Astronomy

Jan. 21, 2014 Rise Set
Actual Time 8:10 AM EST 5:28 PM EST
Civil Twilight 7:37 AM EST 6:01 PM EST
Nautical Twilight 7:01 AM EST 6:37 PM EST
Astronomical Twilight 6:26 AM EST 7:13 PM EST
Moon 11:20 PM EST (1/21) 10:22 AM EST (1/21)
Length of Visible Light 10h 23m
Length of Day
9h 18m
Waning Gibbous, 75% of the Moon is Illuminated
Jan 21
Waning Gibbous
Jan 24
Last Quarter
Jan 30
New
Feb 6
First Quarter
Feb 14
Full

Hourly Weather History & Observations

Time (EST) Temp. Windchill Dew Point Humidity Pressure Visibility Wind Dir Wind Speed Gust Speed Precip Events Conditions
12:15 AM -4.5 °F -18.4 °F -11.2 °F 73% 30.15 in 10.0 mi North 6.9 mph - N/A   Clear
12:35 AM -4.5 °F -18.4 °F -10.7 °F 75% 30.15 in 10.0 mi North 6.9 mph - N/A   Clear
12:55 AM -5.8 °F -16.7 °F -11.4 °F 77% 30.15 in 10.0 mi North 4.6 mph - N/A   Clear
1:15 AM -6.9 °F -15.7 °F -12.3 °F 77% 30.16 in 10.0 mi North 3.5 mph - N/A   Clear
1:35 AM -7.6 °F - -13.0 °F 77% 30.15 in 10.0 mi Calm Calm - N/A   Clear
1:55 AM -9.2 °F -18.4 °F -13.4 °F 82% 30.15 in 10.0 mi West 3.5 mph - N/A   Clear
2:15 AM -10.3 °F -21.9 °F -14.8 °F 81% 30.16 in 10.0 mi WNW 4.6 mph - N/A   Clear
2:35 AM -11.2 °F -20.6 °F -15.3 °F 82% 30.17 in 10.0 mi WNW 3.5 mph - N/A   Clear
2:55 AM -13.4 °F -23.1 °F -17.7 °F 81% 30.18 in 10.0 mi WNW 3.5 mph - N/A   Clear
3:15 AM -11.2 °F -23.0 °F -15.3 °F 82% 30.18 in 10.0 mi West 4.6 mph - N/A   Clear
3:35 AM -15.5 °F -28.0 °F -20.0 °F 80% 30.18 in 10.0 mi West 4.6 mph - N/A   Mostly Cloudy
3:55 AM -12.6 °F -26.6 °F -17.0 °F 81% 30.20 in 10.0 mi WNW 5.8 mph - N/A   Overcast
4:15 AM -9.4 °F -20.9 °F -13.7 °F 81% 30.20 in 10.0 mi WNW 4.6 mph - N/A   Overcast
4:35 AM -8.9 °F -20.2 °F -13.7 °F 79% 30.20 in 10.0 mi NNW 4.6 mph - N/A   Overcast
4:55 AM -7.2 °F -20.1 °F -11.6 °F 81% 30.20 in 10.0 mi North 5.8 mph - N/A   Overcast
5:15 AM -7.1 °F -21.4 °F -11.9 °F 79% 30.21 in 10.0 mi North 6.9 mph - N/A   Mostly Cloudy
5:35 AM -8.1 °F -21.2 °F -12.6 °F 81% 30.21 in 10.0 mi North 5.8 mph - N/A   Clear
5:55 AM -9.6 °F -18.8 °F -13.9 °F 81% 30.21 in 10.0 mi North 3.5 mph - N/A   Clear
6:15 AM -10.7 °F - -15.0 °F 81% 30.21 in 10.0 mi Calm Calm - N/A   Clear
6:35 AM -11.2 °F - -15.2 °F 83% 30.22 in 10.0 mi Calm Calm - N/A   Clear
6:56 AM -15.0 °F -25.0 °F -20.4 °F 77% 30.23 in 10.0 mi NNW 3.5 mph - N/A   Clear
7:15 AM -12.5 °F - -16.2 °F 83% 30.23 in 10.0 mi Calm Calm - N/A   Scattered Clouds
7:35 AM -16.1 °F - -20.6 °F 80% 30.23 in 10.0 mi Calm Calm - N/A   Scattered Clouds
7:55 AM -14.4 °F -24.3 °F -18.4 °F 82% 30.24 in 10.0 mi WNW 3.5 mph - N/A   Mostly Cloudy
8:15 AM -14.4 °F - -18.4 °F 82% 30.23 in 10.0 mi Calm Calm - N/A   Mostly Cloudy
8:35 AM -14.4 °F - -19.5 °F 78% 30.23 in 5.0 mi Calm Calm - N/A   Haze
8:55 AM -13.0 °F -27.0 °F -17.9 °F 79% 30.23 in 10.0 mi West 5.8 mph - N/A   Mostly Cloudy
9:15 AM -10.7 °F -22.3 °F -15.3 °F 80% 30.24 in 10.0 mi WNW 4.6 mph - N/A   Mostly Cloudy
9:35 AM -7.1 °F - -11.9 °F 79% 30.24 in 10.0 mi Calm Calm - N/A   Overcast
9:55 AM -5.4 °F - -11.0 °F 77% 30.25 in 10.0 mi Calm Calm - N/A   Overcast
10:15 AM -3.5 °F - -9.8 °F 74% 30.25 in 10.0 mi Calm Calm - N/A   Overcast
10:35 AM -4.5 °F - -10.3 °F 76% 30.24 in 10.0 mi Calm Calm - N/A   Overcast
10:55 AM -2.2 °F - -9.6 °F 71% 30.25 in 10.0 mi Calm Calm - N/A   Overcast
11:15 AM -3.5 °F - -10.7 °F 71% 30.25 in 10.0 mi Calm Calm - N/A   Overcast
11:35 AM -2.9 °F - -9.8 °F 73% 30.25 in 2.5 mi Calm Calm - N/A   Haze
11:55 AM -2.4 °F - -9.8 °F 71% 30.25 in 10.0 mi Calm Calm - N/A   Overcast
12:16 PM -1.8 °F - -9.0 °F 71% 30.23 in 10.0 mi Calm Calm - N/A   Overcast
12:35 PM -1.5 °F -9.5 °F -8.3 °F 73% 30.23 in 10.0 mi ENE 3.5 mph - N/A   Overcast
12:55 PM -1.1 °F - -8.5 °F 71% 30.22 in 10.0 mi Calm Calm - N/A   Unknown
1:15 PM -0.8 °F - -8.1 °F 71% 30.21 in 10.0 mi Calm Calm - N/A   Unknown
1:35 PM -0.4 °F - -7.8 °F 71% 30.21 in 10.0 mi Calm Calm - N/A   Overcast
1:55 PM 0.1 °F - -7.4 °F 70% 30.20 in 10.0 mi Calm Calm - N/A   Overcast
2:15 PM 0.3 °F -7.5 °F -6.9 °F 72% 30.20 in 7.0 mi ENE 3.5 mph - N/A   Overcast
2:35 PM 0.1 °F -7.7 °F -6.7 °F 73% 30.20 in 7.0 mi NE 3.5 mph - N/A   Overcast
2:55 PM 0.5 °F -7.3 °F -6.7 °F 72% 30.20 in 10.0 mi ENE 3.5 mph - N/A   Mostly Cloudy
3:15 PM 0.1 °F - -6.9 °F 72% 30.20 in 10.0 mi Calm Calm - N/A   Mostly Cloudy
3:35 PM 0.7 °F - -6.7 °F 71% 30.20 in 10.0 mi Calm Calm - N/A   Overcast
3:55 PM 0.5 °F -7.3 °F -6.3 °F 73% 30.21 in 7.0 mi ENE 3.5 mph - N/A   Overcast
4:15 PM 0.9 °F -6.9 °F -5.8 °F 74% 30.21 in 7.0 mi East 3.5 mph - N/A   Overcast
4:35 PM 0.7 °F -7.1 °F -5.8 °F 74% 30.20 in 10.0 mi ENE 3.5 mph - N/A   Overcast
4:56 PM 0.7 °F - -5.8 °F 74% 30.21 in 10.0 mi Calm Calm - N/A   Overcast
5:15 PM 1.0 °F - -5.4 °F 74% 30.20 in 10.0 mi Calm Calm - N/A   Overcast
5:35 PM 0.5 °F - -5.1 °F 77% 30.20 in 10.0 mi Calm Calm - N/A   Overcast
5:55 PM 0.3 °F - -5.4 °F 77% 30.20 in 10.0 mi Calm Calm - N/A   Overcast
6:15 PM 0.9 °F - -4.9 °F 77% 30.20 in 10.0 mi Calm Calm - N/A   Overcast
6:35 PM 0.5 °F -7.3 °F -5.1 °F 77% 30.19 in 10.0 mi SSE 3.5 mph - N/A   Overcast
6:55 PM 0.5 °F - -5.1 °F 77% 30.18 in 10.0 mi Calm Calm - N/A   Overcast
7:15 PM 0.3 °F - -5.3 °F 77% 30.18 in 10.0 mi Calm Calm - N/A   Overcast
7:35 PM -0.8 °F - -5.8 °F 79% 30.18 in 10.0 mi Calm Calm - N/A   Overcast
7:55 PM -0.9 °F -11.0 °F -5.4 °F 81% 30.18 in 10.0 mi SSE 4.6 mph - N/A   Overcast
8:15 PM -0.4 °F - -5.8 °F 78% 30.18 in 10.0 mi Calm Calm - N/A   Overcast
8:35 PM -4.4 °F - -8.3 °F 83% 30.17 in 10.0 mi Calm Calm - N/A   Overcast
8:55 PM -3.8 °F - -7.2 °F 85% 30.17 in 10.0 mi Calm Calm - N/A   Overcast
9:15 PM -4.9 °F - -8.9 °F 83% 30.16 in 10.0 mi Calm Calm - N/A   Overcast
9:35 PM -5.3 °F -13.8 °F -9.2 °F 83% 30.16 in 10.0 mi ESE 3.5 mph - N/A   Overcast
9:55 PM -3.3 °F - -7.6 °F 82% 30.16 in 10.0 mi Calm Calm - N/A   Overcast
10:15 PM -1.3 °F -9.3 °F -6.2 °F 80% 30.15 in 10.0 mi SE 3.5 mph - N/A   Overcast
10:35 PM -2.4 °F -10.6 °F -7.2 °F 80% 30.15 in 10.0 mi South 3.5 mph - N/A   Overcast
10:55 PM -1.7 °F -11.8 °F -6.7 °F 79% 30.15 in 10.0 mi South 4.6 mph - N/A   Overcast
11:15 PM -2.0 °F -10.1 °F -6.9 °F 80% 30.14 in 10.0 mi SSE 3.5 mph - N/A   Overcast
11:35 PM -2.0 °F - -6.9 °F 80% 30.14 in 10.0 mi Calm Calm - N/A   Overcast
11:55 PM -1.7 °F -13.5 °F -6.3 °F 80% 30.14 in 10.0 mi SE 5.8 mph - N/A   Overcast